Location: Głogów
(51.6590°N, 16.0805°E)
Time: 18:09:00
(UTC+01:00)

ISS - Visible Passes

Search period start: 16 January 2019 00:00
Search period end: 26 January 2019 00:00
Orbit: 404 x 407 km, 51.6° (Epoch: 17 January)

Date Brightness Start Highest point End Pass type
(mag) Time Alt. Az. Time Alt. Az. Time Alt. Az.
23 Jan -1.6 18:36:53 10° S 18:38:06 16° S 18:38:06 16° S visible
24 Jan -1.5 17:46:10 10° SSE 17:47:34 12° SE 17:48:29 11° ESE visible
24 Jan -1.2 19:20:17 10° SW 19:21:11 17° SW 19:21:11 17° SW visible
25 Jan -2.8 18:28:37 10° SW 18:31:29 32° SSE 18:31:29 32° SSE visible
